Home > Weather > Liège > Past weeks

Flag for Belgium Weather for the Past 2 Weeks in Liège, Belgium

Now
37 °F

Scattered clouds.


Feels Like: 30 °F
Forecast: 36 / 43 °F
Wind: 10 mph from Southwest

Location: Bierset

Current Time: Feb 11, 2016 at 10:13:29 AM

Latest Report: Feb 11, 2016 at 9:20 AM


Visibility: 6 mi

Pressure: 29.68 "Hg

Humidity: 87%

Dew point: 34 °F

Location of LiègeLocation

Historic Weather in Liège — Graph

°F

Liège Temperature Yesterday

Maximum temperature yesterday: 41 °F (at 2:20 PM)
Minimum temperature yesterday: 36 °F (at 2:50 AM)
Average temperature yesterday: 38 °F

High & Low Weather Summary for the Past Weeks

 TemperatureHumidityPressure
High52 °F (Jan 31, 8:50 PM)100% (Feb 2, 8:50 AM)30.33 "Hg (Feb 2, 8:50 AM)
Low36 °F (Jan 28, 7:50 PM)62% (Feb 6, 7:20 PM)28.85 "Hg (Feb 9, 2:20 PM)
Average44 °F83%29.86 "Hg
* Reported Jan 27 8:20 AM — Feb 11 8:20 AM, Liège, Weather by CustomWeather, © 2016

Note: Actual official high and low records may vary slightly from our data, if they occured in-between our weather recording intervals... More about our weather records

Advertising

Liège Weather History for the Previous 24 Hours

 ConditionsComfort  
Time TempWeatherWind HumidityBarometerVisibility
8:20 AM
Thu, Feb 11
36 °FScattered clouds.12 mph93%29.65 "Hg6 mi
7:50 AM36 °FPassing clouds.10 mph93%29.65 "Hg6 mi
7:20 AM37 °FPassing clouds.9 mph87%29.65 "HgN/A
6:50 AM37 °FPassing clouds.9 mph93%29.65 "Hg6 mi
6:20 AM37 °FPassing clouds.10 mph93%29.65 "Hg6 mi
5:50 AM37 °FPassing clouds.10 mph87%29.65 "Hg6 mi
5:20 AM37 °FPartly cloudy.12 mph93%29.65 "HgN/A
4:50 AM39 °FPassing clouds.14 mph87%29.65 "HgN/A
4:20 AM37 °FPartly cloudy.13 mph93%29.65 "HgN/A
3:50 AM37 °FPartly cloudy.10 mph93%29.65 "Hg5 mi
3:20 AM37 °FPassing clouds.12 mph87%29.65 "Hg4 mi
2:50 AM37 °FPassing clouds.12 mph87%29.62 "Hg4 mi
2:20 AM37 °FPartly cloudy.12 mph93%29.62 "Hg4 mi
1:50 AM37 °FFog.10 mph93%29.62 "Hg3 mi
12:50 AM37 °FPassing clouds.10 mph87%29.62 "Hg4 mi
11:50 PM
Wed, Feb 10
37 °FPartly cloudy.9 mph93%29.59 "Hg4 mi
11:20 PM39 °FPassing clouds.9 mph87%29.59 "Hg5 mi
10:50 PM39 °FPartly cloudy.12 mph87%29.59 "HgN/A
9:50 PM37 °FPartly cloudy.10 mph93%29.56 "HgN/A
9:20 PM37 °FPassing clouds.9 mph93%29.56 "HgN/A
8:50 PM39 °FSprinkles. Passing clouds.9 mph87%29.53 "HgN/A
8:20 PM39 °FPassing clouds.10 mph93%29.53 "HgN/A
7:50 PM39 °FSprinkles. Passing clouds.12 mph93%29.53 "HgN/A
7:20 PM39 °FRain showers. Partly cloudy.13 mph93%29.50 "Hg4 mi
6:50 PM39 °FSprinkles. Passing clouds.14 mph93%29.50 "Hg5 mi
6:20 PM39 °FPassing clouds.14 mph87%29.47 "HgN/A
5:50 PM39 °FPassing clouds.15 mph87%29.47 "HgN/A
5:20 PM39 °FBroken clouds.15 mph87%29.45 "HgN/A
4:50 PM39 °FSprinkles. Broken clouds.16 mph87%29.45 "Hg6 mi
4:20 PM39 °FBroken clouds.16 mph93%29.42 "HgN/A
3:50 PM39 °FBroken clouds.17 mph93%29.42 "HgN/A
3:20 PM39 °FSprinkles. Broken clouds.20 mph93%29.42 "HgN/A
2:50 PM41 °FScattered clouds.16 mph87%29.39 "HgN/A
2:20 PM41 °FScattered clouds.18 mph87%29.39 "HgN/A
1:50 PM39 °FBroken clouds.20 mph93%29.39 "HgN/A
1:20 PM39 °FPartly sunny.17 mph93%29.39 "HgN/A
12:50 PM39 °FSprinkles. Partly sunny.18 mph87%29.39 "HgN/A
12:20 PM39 °FPartly sunny.16 mph87%29.36 "HgN/A
11:50 AM39 °FSprinkles. Broken clouds.16 mph87%29.36 "HgN/A
11:20 AM37 °FBroken clouds.15 mph93%29.36 "HgN/A
10:50 AM37 °FSprinkles. Partly sunny.16 mph87%29.36 "HgN/A
10:20 AM37 °FSprinkles. Broken clouds.18 mph87%29.33 "Hg5 mi
Weather by CustomWeather, © 2016

See weather overviewHow to use our weather pages